Regional Weather Roundup
Issued by NWS Charleston, SC

Current Version | Previous Version | Graphics & Text | Print | Product List | Glossary On
Versions: 1 2 3 4 5 6 7 8 9 10 11 12 13 14 15 16 17 18 19 20 21 22 23 24 25 26 27 28 29 30 31 32 33 34 35 36 37 38 39 40 41 42 43 44 45 46 47 48 49 50
000
ASUS42 KCHS 240228
RWRCHS

REGIONAL WEATHER ROUNDUP
NATIONAL WEATHER SERVICE CHARLESTON SC
1000 PM EDT SAT JUL 23 2016

NOTE: "FAIR" INDICATES FEW OR NO CLOUDS BELOW 12,000 FEET WITH NO
SIGNIFICANT WEATHER AND/OR OBSTRUCTIONS TO VISIBILITY.

NOT ALL STATIONS ARE QUALITY CONTROLLED. USE DATA WITH CAUTION...
ESPECIALLY DEWPOINT OBSERVATIONS.

SCZ027-030-031-034>040-042>050-240300-
...SOUTHEAST SOUTH CAROLINA...

CITY           SKY/WX    TMP DP  RH WIND       PRES   REMARKS
N CHARLESTON   PTCLDY    82  75  79 S6        30.00R
WATERFRONT PRK   N/A     84  78  82 S6        29.97R HX  95
MOUNT PLEASANT FAIR      82  79  89 CALM      30.01R HX  93
JOHNS ISLAND   FAIR      84  77  79 S8        30.01R HX  94
PINOPOLIS        N/A     84  73  70 CALM      29.92R HX  91
MONCKS CORNER  FAIR      77  72  83 CALM      30.00R
SUMMERVILLE    FAIR      81  77  89 S3        30.01R
BEAUFORT MCAS  CLEAR     85  75  72 S5        30.01R HX  93
BEAUFORT ARPT  FAIR      84  75  74 SW6       30.01R HX  92
HILTON HEAD IS CLEAR     84  75  74 S6G12     30.03R HX  92
WALTERBORO     CLEAR     82  73  74 S6        30.01S
ALLENDALE      FAIR      84  73  70 S3        29.99R HX  91

...SOUTHERN MIDLANDS AND PEE DEE...

CITY           SKY/WX    TMP DP  RH WIND       PRES   REMARKS
GEORGETOWN     FAIR      79  75  89 CALM      30.01R
KINGSTREE      FAIR      81  73  78 CALM      29.99R
ORANGEBURG     PTCLDY    83  74  74 SE5       30.00R
BARNWELL       NOT AVBL
AIKEN          FAIR      79  73  83 S3        30.05R
MANNING        FAIR      82  73  74 CALM      30.00R
COLUMBIA       PTCLDY    82  71  69 E3        29.99R
SUMTER         PTCLDY    82  71  70 N3        29.97S
FLORENCE       CLOUDY    83  74  74 SE3       29.99S
MYRTLE BEACH   MOCLDY    84  72  65 E7        30.02R
N MYRTLE BEACH CLOUDY    79  74  84 CALM      30.00S

$$

GAZ063-065-086>088-099>101-113>116-118-119-134>141-150-240300-
...SOUTHEAST GEORGIA...

CITY           SKY/WX    TMP DP  RH WIND       PRES   REMARKS
SAVANNAH ARPT  CLEAR     83  73  72 S3        30.01R
HUNTER AAF     PTCLDY    82  77  83 S5        29.99R HX  91
FORT STEWART   CLEAR     81  72  74 CALM      29.99R
STATESBORO     CLOUDY    79  75  89 CALM      30.01R
SYLVANIA       NOT AVBL
CLAXTON        FAIR      78  76  92 CALM      30.01R

...CSRA...CENTRAL AND FAR SOUTHEAST GEORGIA...

CITY           SKY/WX    TMP DP  RH WIND       PRES   REMARKS
THOMSON        PTCLDY    82  76  84 CALM      30.06R
AUGUSTA-BUSH   CLOUDY    79  71  76 CALM      29.98R
AUGUSTA-DANIEL CLOUDY    85  68  56 CALM      30.01R
SWAINSBORO     FAIR      79  73  83 CALM      30.02R
VIDALIA        PTCLDY    81  68  65 CALM      30.01S
EASTMAN        FAIR      78  69  74 CALM      30.02S
HAZLEHURST     FAIR      80  75  85 CALM      30.00S
ALMA           PTCLDY    80  71  74 W3        30.00R
WAYCROSS       PTCLDY    83  75  78 CALM      30.02R HX  90
JESUP          FAIR      81  75  83 CALM      30.03R
BAXLEY         FAIR      77  77 100 CALM      30.02R
BRUNSWICK      PTCLDY    84  79  84 S5        30.03R HX  96
SAINT SIMONS   CLEAR     85  74  69 S9        30.01R HX  92

$$

SCZ027-028-034-036>038-045-046-048>050-GAZ119-141-240300-
...LAKE AND SUPPLEMENTAL COASTAL OBSERVATIONS...

STATION/POSITION TIME  TEMP    WIND        PRES    WAVE   SWELL
                       AIR SEA DIR/SP/G            HT/PER HT/PER/DIR
                 (UTC) (F)     (DEG/KT/KT) (MB)    (FT/S) (FT/S/D)
WINYAH BAY       0145   83     210/  6     1015.0R
LAKE MURRAY      0100   84     110/  2/  3 1014.2S
ACE BASIN NERRS  0100   85        CALM     1015.0S
FORT PULASKI     0200   85 88                N/A
SAPELO ISLAND    0200   84     180/  8     1016.0R

$$

ANZ835-935-AMZ111-154-330-350-352-354-370-450-454-472-240300-
...C-MAN AND BUOY OBSERVATIONS...

STATION/POSITION TIME  TEMP    WIND        PRES    WAVE   SWELL
                       AIR SEA DIR/SP/G            HT/PER HT/PER/DIR
                 (UTC) (F)     (DEG/KT/KT) (MB)    (FT/S) (FT/S/D)
BUOY 41004       0150   85 86  190/ 10/ 10 1015.6R   2/ 9   2/110/ 9
BUOY 41008       0150   85 87  160/ 12/ 14 1015.8R   2/ 8   2/100/ 8
FOLLY BEACH CMAN 0200   85     190/ 13/ 15 1016.2R
CAPERS NEARSHORE 0208   85 84  210/ 12/ 16 1015.8R
FRIPP NEARSHORE  0208   85 86  200/ 14/ 17 1015.7R


STATION/POSITION TIME  TEMP    WIND        PRES    WAVE   SWELL
                       AIR SEA DIR/SP/G            HT/PER HT/PER/DIR
                 (UTC) (F)     (DEG/KT/KT) (MB)    (FT/S) (FT/S/D)
5E ST. MARYS GA  0201      87                N/A     3/ 8
FRYING PAN BUOY  0200   85 86  190/  8/ 10 1016.0R
BUOY 41025       0150   84 86  220/ 12/ 16 1016.4R   3/ 8   2/120/ 8
CAPE LOOKOUT NC  0200   83     220/  8/  9 1015.9R
BUOY 41002       0150   83 85  160/  6/  6 1016.9R   3/ 9   3/100/ 9
BUOY 41010       0120   85 87   90/  4/  6 1016.8R
ST AUGUSTINE FL  0200   84 88  160/ 15/ 16 1017.4R


$$




USA.gov is the U.S. government's official web portal to all federal, state and local government web resources and services.